Vorticity
23 14 25 22 30 17 16 25 37 34 19 13 15 14 13 27 24 16 7 19 30 16 17 13 10 14 15 16 13 7 7 10 11 11 11 9 11 20 15 13 16 12 9 9 10 15 15
17 20 15 29 20 15 16 43 33 14 15 8 29 46 23 24 21 16 14 23 27 12 12 13 14 14 19 15 6 10 6 8 7 6 9 17 16 12 14 12 8 12 13 15 21 17 26
14 3 9 20 17 15 21 22 26 26 24 24 13 29 22 23 21 -1 16 20 23 21 16 15 16 19 4 5 6 6 1 1 8 16 16 11 12 9 4 16 3 17 16 7 9 0 2
9 -3 12 16 22 18 36 35 18 29 40 33 28 49 14 8 14 22 23 21 18 11 15 13 9 9 14 8 4 3 6 14 16 11 7 7 7 13 2 6 18 6 9 21 2 2 1
6 11 9 12 29 34 37 59 50 43 29 29 38 41 22 32 10 15 -4 15 14 14 12 14 5 0 -2 4 13 20 15 11 7 9 8 6 5 9 15 14 7 11 13 12 7 1 4
3 11 9 8 26 -2 8 8 16 15 35 42 -5 18 22 8 21 16 20 11 14 15 6 -5 -0 14 19 20 20 12 5 7 11 9 12 13 14 15 13 10 4 4 6 11 5 5 4
3 9 7 9 9 31 6 13 12 14 7 8 3 58 10 21 17 13 12 7 7 -3 3 3 18 13 12 0 4 1 -3 2 1 5 8 6 9 8 13 15 21 17 10 5 10 7 5
2 9 5 7 9 10 27 11 14 -2 11 15 27 26 28 16 11 8 5 0 2 -3 13 26 7 5 4 0 0 4 1 5 4 8 12 19 20 18 13 13 12 14 11 16 16 13 6
5 12 2 4 6 9 9 13 13 10 15 7 5 4 2 0 6 7 11 6 15 19 22 5 2 -1 -1 3 2 3 7 8 12 18 37 23 34 38 37 30 21 17 16 13 8 14 21
8 8 3 1 4 6 8 8 12 15 12 15 17 20 25 14 13 19 25 24 15 6 3 4 2 2 2 3 6 5 -1 14 16 25 25 7 14 22 30 35 38 35 28 18 18 13 11
8 6 7 1 1 3 4 3 8 9 8 12 13 8 -2 10 12 13 10 4 5 6 4 4 -1 1 -1 0 0 5 7 3 14 26 15 12 12 17 12 25 15 11 40 31 15 19 14
16 8 7 1 -0 0 3 2 2 4 4 -2 5 4 6 2 -2 -2 0 4 7 -1 1 2 3 7 8 6 6 6 8 9 11 25 11 4 15 25 23 23 28 31 34 29 23 15 11
14 15 1 5 -0 -2 3 3 3 1 2 3 -1 2 5 4 8 6 4 5 3 4 3 3 4 5 6 6 6 7 6 10 9 14 27 17 3 10 6 30 28 25 29 20 16 10 13
8 25 14 3 5 -1 -2 2 -1 3 3 1 2 -1 -2 4 4 5 5 3 3 4 5 5 5 6 9 7 6 4 6 4 7 7 13 16 15 3 3 2 14 9 -2 21 10 5 14
7 5 12 8 2 4 -1 -0 3 -1 2 1 1 1 1 3 4 4 2 1 6 6 5 5 4 3 5 6 5 8 7 5 5 6 16 14 10 26 16 13 4 8 12 16 15 13 8
3 5 15 8 14 2 4 -2 -1 0 -1 1 -1 1 2 2 2 3 3 3 3 4 5 4 4 5 4 4 6 4 5 6 5 5 5 6 10 20 20 21 17 8 7 16 17 11 6
5 4 3 27 5 13 4 6 1 2 -0 0 -1 2 -1 -0 3 4 6 4 4 6 6 5 5 5 5 3 3 4 5 5 3 4 3 6 8 5 9 19 31 17 11 7 8 11 9
5 5 4 5 28 6 5 16 4 2 -1 2 3 1 3 -0 3 2 5 4 7 6 7 4 5 5 6 5 4 4 3 5 5 5 1 4 9 4 6 5 4 14 36 46 14 11 10
6 3 8 5 4 22 4 5 11 11 3 1 3 2 -0 2 1 -1 2 3 3 5 5 6 7 6 6 6 6 4 7 4 3 3 4 2 1 7 7 2 4 4 5 6 27 46 36
3 3 5 8 3 4 17 7 3 4 11 17 9 6 4 2 1 2 1 3 2 3 4 5 5 5 7 7 7 7 7 5 4 3 3 3 5 4 5 7 6 5 6 6 6 5 13
2 7 6 13 5 2 4 7 15 1 1 5 4 13 13 9 8 3 5 1 1 3 4 3 4 5 5 5 6 8 7 7 6 5 4 4 1 5 6 5 8 5 6 6 6 6 6
8 0 5 12 11 2 2 1 7 10 12 -0 6 4 5 6 12 17 9 7 6 3 3 4 3 5 3 5 5 5 7 7 6 6 7 5 2 2 2 5 5 4 4 6 7 8 10
-3 6 5 6 11 6 3 1 4 2 3 12 10 5 4 5 7 8 4 12 17 11 7 3 5 5 6 4 4 5 5 6 8 5 6 8 8 -0 3 1 3 6 1 1 5 4 5
14 7 4 3 16 8 5 10 3 5 -0 2 2 6 7 4 2 -1 7 7 6 6 10 16 12 6 4 4 5 6 5 5 4 8 7 6 6 10 5 2 3 2 5 2 2 1 1
5 7 8 4 8 8 14 -5 -0 13 4 2 3 2 7 8 11 8 7 4 6 7 10 9 8 14 12 9 7 6 8 5 6 5 4 7 9 6 9 7 3 5 2 4 5 2 3
3 7 4 7 4 -2 10 -3 3 6 -0 2 12 3 1 3 8 7 9 8 8 5 4 3 8 10 11 10 11 12 10 7 7 4 9 5 4 7 9 7 10 4 3 0 5 3 2
7 10 11 4 6 1 3 6 -3 8 12 2 2 12 6 0 1 7 9 7 8 8 11 15 6 2 2 4 6 9 13 14 12 8 5 6 9 6 6 9 8 8 9 4 0 4 6
4 5 9 6 5 5 8 -2 0 2 3 7 4 3 2 11 5 1 2 2 11 6 2 4 8 7 11 12 12 11 10 9 14 14 14 11 7 7 10 9 5 11 10 10 10 5 0
14 4 2 9 3 7 2 2 0 1 -2 2 4 10 1 3 2 8 3 1 2 4 6 14 6 5 11 3 9 11 13 15 10 9 11 18 16 11 6 6 9 8 9 9 8 9 7
Height
5742 5721 5700 5673 5648 5623 5602 5578 5564 5556 5551 5549 5545 5544 5548 5556 5565 5577 5588 5597 5607 5621 5631 5643 5654 5662 5669 5674 5680 5684 5687 5690 5692 5693 5693 5692 5691 5691 5690 5689 5690 5690 5690 5690 5691 5693 5693
5742 5725 5703 5675 5644 5622 5597 5575 5560 5553 5548 5545 5541 5541 5547 5556 5567 5580 5591 5599 5610 5621 5634 5646 5654 5662 5669 5674 5678 5682 5685 5687 5688 5687 5686 5684 5683 5683 5682 5682 5682 5683 5683 5683 5684 5685 5685
5744 5728 5706 5677 5648 5625 5599 5577 5563 5551 5545 5543 5543 5544 5550 5562 5575 5585 5594 5603 5613 5626 5637 5649 5657 5665 5667 5674 5678 5681 5683 5683 5682 5680 5679 5677 5676 5676 5677 5674 5674 5675 5677 5676 5678 5680 5680
5748 5732 5710 5681 5656 5632 5607 5582 5570 5555 5548 5547 5549 5551 5560 5573 5583 5591 5599 5608 5621 5631 5640 5652 5659 5665 5671 5676 5678 5679 5680 5679 5678 5676 5674 5672 5671 5670 5668 5668 5667 5667 5670 5670 5672 5673 5674
5753 5738 5717 5690 5666 5644 5620 5593 5577 5568 5560 5557 5558 5566 5575 5582 5592 5601 5607 5618 5627 5636 5647 5656 5662 5668 5672 5675 5677 5679 5678 5677 5674 5672 5670 5667 5666 5663 5661 5660 5660 5660 5662 5664 5664 5666 5668
5759 5745 5726 5702 5680 5657 5638 5619 5597 5585 5578 5577 5578 5584 5591 5596 5605 5613 5620 5628 5636 5644 5653 5661 5666 5672 5675 5678 5680 5681 5680 5677 5674 5671 5668 5664 5659 5655 5653 5652 5653 5652 5653 5655 5656 5659 5664
5765 5754 5736 5716 5694 5673 5654 5643 5627 5612 5600 5600 5601 5605 5609 5613 5619 5624 5631 5639 5648 5656 5660 5667 5672 5677 5680 5683 5684 5684 5682 5679 5675 5671 5665 5658 5651 5646 5646 5643 5642 5642 5644 5646 5649 5650 5656
5771 5761 5748 5731 5710 5692 5672 5660 5650 5640 5635 5621 5622 5626 5630 5633 5636 5640 5645 5653 5659 5665 5669 5675 5680 5684 5686 5689 5688 5688 5684 5681 5674 5667 5658 5650 5642 5636 5631 5629 5630 5631 5634 5636 5641 5644 5649
5779 5767 5757 5744 5728 5710 5694 5677 5672 5662 5654 5654 5645 5644 5652 5654 5655 5657 5659 5664 5668 5673 5681 5685 5689 5691 5693 5693 5692 5689 5685 5679 5671 5660 5651 5643 5636 5627 5621 5617 5618 5619 5621 5628 5635 5637 5642
5785 5775 5766 5755 5744 5729 5715 5703 5688 5683 5675 5674 5671 5662 5660 5665 5670 5671 5674 5678 5684 5687 5691 5695 5697 5698 5698 5696 5694 5690 5685 5680 5670 5660 5650 5643 5634 5625 5617 5612 5609 5609 5612 5621 5627 5632 5639
5791 5784 5775 5764 5756 5747 5733 5722 5713 5703 5696 5689 5693 5689 5683 5678 5682 5687 5691 5692 5694 5696 5698 5702 5702 5702 5700 5699 5696 5692 5688 5680 5669 5659 5651 5643 5633 5624 5617 5611 5607 5607 5606 5612 5621 5629 5636
5795 5788 5782 5775 5765 5758 5750 5739 5730 5723 5716 5712 5705 5708 5706 5702 5702 5699 5700 5700 5702 5704 5703 5705 5705 5705 5703 5700 5698 5694 5688 5681 5672 5660 5650 5643 5634 5626 5618 5612 5608 5605 5606 5611 5620 5628 5634
5798 5793 5787 5782 5775 5767 5761 5754 5744 5739 5732 5729 5725 5719 5722 5721 5719 5714 5713 5715 5715 5711 5710 5710 5708 5706 5704 5702 5699 5695 5690 5683 5675 5665 5654 5645 5638 5632 5623 5618 5614 5612 5614 5617 5623 5628 5632
5802 5797 5793 5786 5781 5775 5769 5764 5757 5750 5745 5741 5740 5737 5728 5732 5730 5729 5726 5723 5724 5720 5718 5718 5715 5713 5710 5707 5703 5698 5692 5685 5677 5669 5659 5650 5643 5636 5631 5628 5625 5624 5625 5626 5628 5631 5634
5805 5799 5795 5791 5787 5781 5776 5770 5765 5762 5757 5753 5748 5745 5744 5740 5737 5736 5735 5732 5732 5728 5726 5723 5720 5718 5715 5712 5708 5703 5697 5690 5682 5674 5666 5658 5650 5643 5639 5637 5635 5633 5632 5632 5633 5635 5637
5805 5801 5797 5793 5789 5787 5781 5776 5769 5764 5762 5760 5755 5752 5751 5746 5743 5740 5740 5739 5737 5733 5729 5726 5724 5722 5718 5715 5711 5706 5701 5695 5689 5682 5674 5667 5660 5652 5648 5644 5641 5639 5639 5638 5637 5638 5640
5806 5801 5797 5794 5791 5788 5785 5782 5777 5771 5767 5764 5763 5758 5756 5754 5750 5747 5742 5741 5740 5738 5735 5732 5728 5724 5721 5718 5714 5711 5707 5702 5696 5690 5682 5675 5669 5664 5657 5652 5648 5646 5644 5642 5642 5642 5642
5804 5800 5798 5793 5790 5787 5787 5782 5779 5776 5771 5768 5763 5762 5760 5755 5753 5751 5747 5746 5745 5741 5739 5736 5733 5729 5725 5721 5718 5714 5710 5706 5701 5697 5691 5684 5678 5672 5667 5662 5658 5655 5651 5647 5646 5646 5645
5802 5799 5796 5794 5791 5787 5784 5782 5779 5775 5773 5769 5766 5763 5762 5761 5754 5752 5751 5750 5748 5744 5742 5739 5736 5732 5728 5725 5723 5718 5715 5711 5706 5702 5698 5693 5687 5683 5677 5673 5667 5664 5661 5656 5653 5649 5647
5799 5795 5792 5791 5789 5786 5783 5781 5778 5775 5772 5770 5766 5762 5761 5760 5757 5755 5752 5751 5748 5744 5740 5738 5734 5732 5730 5727 5724 5720 5717 5715 5711 5707 5703 5699 5695 5689 5684 5679 5675 5671 5667 5663 5659 5656 5652
5797 5792 5789 5786 5783 5782 5780 5777 5776 5773 5770 5769 5765 5762 5758 5757 5755 5754 5751 5748 5746 5747 5744 5742 5738 5735 5732 5729 5726 5723 5719 5716 5714 5711 5707 5703 5700 5696 5692 5687 5682 5678 5673 5669 5665 5662 5658
5792 5788 5785 5782 5779 5776 5775 5774 5772 5769 5767 5765 5763 5762 5757 5754 5751 5750 5747 5745 5743 5743 5741 5740 5737 5735 5732 5729 5726 5724 5721 5718 5715 5712 5709 5707 5704 5700 5697 5694 5689 5684 5680 5675 5671 5667 5663
5784 5782 5779 5777 5775 5773 5770 5768 5768 5766 5763 5761 5759 5756 5755 5752 5749 5748 5745 5743 5740 5737 5736 5736 5734 5732 5730 5729 5726 5723 5720 5718 5715 5712 5709 5707 5705 5702 5700 5697 5693 5691 5686 5682 5678 5673 5668
5776 5774 5773 5771 5770 5768 5765 5763 5760 5761 5760 5757 5755 5753 5750 5749 5745 5744 5743 5740 5738 5734 5732 5730 5728 5727 5727 5724 5723 5720 5718 5715 5713 5712 5709 5706 5704 5703 5701 5698 5696 5694 5690 5687 5683 5679 5675
5766 5765 5765 5763 5762 5761 5760 5757 5754 5752 5752 5751 5749 5748 5747 5744 5741 5737 5737 5735 5734 5731 5729 5726 5724 5722 5720 5719 5719 5717 5715 5713 5711 5709 5707 5705 5703 5701 5700 5698 5697 5693 5691 5689 5685 5684 5680
5756 5755 5756 5755 5752 5751 5751 5750 5748 5746 5743 5742 5741 5738 5739 5739 5737 5733 5729 5730 5728 5727 5725 5722 5720 5718 5716 5714 5712 5711 5710 5709 5707 5705 5703 5702 5700 5699 5697 5695 5695 5693 5691 5689 5686 5684 5682
5743 5744 5743 5743 5742 5741 5740 5739 5739 5737 5735 5734 5732 5731 5730 5730 5729 5727 5726 5722 5722 5720 5720 5718 5715 5713 5711 5711 5708 5706 5705 5703 5702 5700 5699 5698 5696 5694 5693 5691 5691 5690 5689 5687 5686 5687 5681
5728 5730 5730 5730 5730 5729 5729 5728 5727 5726 5724 5723 5723 5721 5721 5720 5719 5719 5717 5714 5715 5714 5713 5711 5710 5707 5706 5704 5703 5700 5699 5698 5696 5695 5692 5692 5691 5690 5688 5687 5686 5685 5685 5684 5683 5681 5680
5710 5711 5714 5715 5717 5716 5717 5716 5715 5714 5712 5712 5711 5710 5711 5709 5711 5708 5709 5706 5705 5705 5704 5704 5703 5700 5699 5697 5696 5694 5693 5691 5690 5689 5687 5687 5685 5683 5683 5681 5678 5678 5678 5678 5678 5677 5676